This is the latest recevied weather packets stored in our database for station/object APPOWX. If no packets are shown the sender has not sent any weather packets the latest 10 day(s).
| Time | Temp. | Humidity | Pressure | Rain* | Wind** | Luminosity | Snow |
|---|---|---|---|---|---|---|---|
| 1777566416 | 17.22° C | 59% | 1012.8 hPa | 0 mm | - | - | - |
| 1777566355 | 17.22° C | 57% | 1012.7 hPa | 0 mm | - | - | - |
| 1777566295 | 17.22° C | 58% | 1012.8 hPa | 0 mm | - | - | - |
| 1777566236 | 16.11° C | 59% | 1012.8 hPa | 0 mm | - | - | - |
| 1777566175 | 16.67° C | 58% | 1012.8 hPa | 0 mm | - | - | - |
| 1777566115 | 16.67° C | 60% | 1012.9 hPa | 0 mm | - | - | - |
| 1777566055 | 16.67° C | 58% | 1012.7 hPa | 0 mm | - | - | - |
| 1777565995 | 16.67° C | 58% | 1012.9 hPa | 0 mm | - | - | - |
| 1777565935 | 16.67° C | 60% | 1012.8 hPa | 0 mm | - | - | - |
| 1777565875 | 17.22° C | 63% | 1012.8 hPa | 0 mm | - | - | - |
| 1777565814 | 17.22° C | 62% | 1012.7 hPa | 0 mm | - | - | - |
| 1777565755 | 16.67° C | 61% | 1012.9 hPa | 0 mm | - | - | - |
| 1777565695 | 17.22° C | 63% | 1012.8 hPa | 0 mm | - | - | - |
| 1777565635 | 17.22° C | 62% | 1012.9 hPa | 0 mm | - | - | - |
| 1777565574 | 17.22° C | 64% | 1012.9 hPa | 0 mm | - | - | - |
| 1777565514 | 17.22° C | 60% | 1013 hPa | 0 mm | - | - | - |
| 1777565454 | 17.22° C | 58% | 1012.9 hPa | 0 mm | - | - | - |
| 1777565394 | 17.22° C | 61% | 1013.2 hPa | 0 mm | - | - | - |
| 1777565334 | 16.67° C | 59% | 1012.8 hPa | 0 mm | - | - | - |
| 1777565273 | 16.67° C | 63% | 1012.9 hPa | 0 mm | - | - | - |
| 1777565213 | 16.11° C | 63% | 1012.9 hPa | 0 mm | - | - | - |
| 1777565152 | 16.67° C | 63% | 1013 hPa | 0 mm | - | - | - |
| 1777565091 | 16.67° C | 63% | 1013 hPa | 0 mm | - | - | - |
| 1777565031 | 16.67° C | 62% | 1013.1 hPa | 0 mm | - | - | - |
| 1777564971 | 16.67° C | 60% | 1013 hPa | 0 mm | - | - | - |
* Rain latest hour (hover to see other rain measurements)
** Current wind speed in m/s (hover to see current wind gust speed)